Location: Brno
(49.2000°N, 16.6330°E)
Time: 10:49:17
(UTC+02:00)

ISS - Pass Details

Date: 19 May 2021
Orbit: 417 x 422 km, 51.6° (Epoch: 13 June)

Event Time Altitude Azimuth Distance (km) Brightness Sun altitude
Rises 23:43:05 0° 282° (WNW) 2,367 0.5 -19.2°
Reaches altitude 10° 23:45:12 10° 287° (WNW) 1,504 -0.5 -19.3°
Maximum altitude 23:48:32 58° 7° (N) 498 -3.2 -19.5°
Enters shadow 23:50:21 24° 79° (E) 917 -2.1 -19.6°
